Simultaneous Nadir Overpasses (SNOs) Predictions

Prediction of SNOs between LANDSAT-8 and NOAA-19 Satellite Orbit:

Table of predicted SNOs for the next 14.0 days since TLE Epoch: 10/26/2019
Index Date (LANDSAT-8) Time (LANDSAT-8) Lat,Lon (LANDSAT-8) SZA (LANDSAT-8 ) Date (NOAA-19) Time (NOAA-19) Lat,Lon (NOAA-19) SZA (NOAA-19 ) Distance(km) Time Diff (sec)
1 10/26/2019 20:12:59 79.17,-101.45 92.72 10/26/2019 20:12:58 79.18,-101.32 92.74 3.04 1
2 10/29/2019 01:46:43 -79.19, -4.73 86.50 10/29/2019 01:46:26 -79.21, -4.85 86.50 2.80 17
3 10/29/2019 02:36:09 79.19, 162.89 93.51 10/29/2019 02:37:20 79.16, 162.81 93.50 3.53 71
4 10/31/2019 07:20:26 79.21, 91.92 94.26 10/31/2019 07:19:43 79.20, 91.96 94.24 1.03 43
5 10/31/2019 08:09:54 -79.18,-100.64 85.78 10/31/2019 08:10:48 -79.19,-100.69 85.76 1.72 54
6 11/02/2019 12:54:10 -79.23,-171.36 85.00 11/02/2019 12:53:11 -79.23,-171.52 85.04 3.30 59
7 11/02/2019 13:43:37 79.19, -4.01 94.95 11/02/2019 13:44:05 79.19, -3.92 94.97 1.88 28
8 11/04/2019 19:17:21 -79.21, 92.71 84.33 11/04/2019 19:17:33 -79.21, 92.60 84.33 2.22 12
9 11/07/2019 00:51:04 79.21,-170.70 96.35 11/07/2019 00:50:50 79.22,-170.66 96.35 0.89 14




NCC Satellite Simultaneous Nadir Overpasses (SNOs) Prediction Service
